Probability
0 0 0 0 0 0 0 0 1 3 4 6 12 16 12 6 2 1 0 1 5 8 7 4 4 3 2 2 3 1 0 0 0 0 1 2 4 5 5 4 1 0 0 0 0 0 0 0 0
0 0 0 0 0 0 0 0 2 5 7 13 21 23 17 9 5 2 1 5 11 14 11 8 7 6 4 3 3 2 1 0 0 0 0 2 5 6 6 4 1 0 0 0 0 0 0 0 0
0 0 0 0 0 0 0 0 5 11 18 27 37 36 24 13 7 4 5 13 22 22 17 14 14 10 6 4 3 2 1 0 1 1 2 4 6 6 5 2 0 0 1 0 0 0 0 0 0
0 0 0 0 0 0 0 1 9 20 28 38 47 44 31 19 11 10 14 21 27 26 22 21 21 16 10 7 5 3 1 1 3 4 5 6 6 6 4 2 1 1 1 0 0 0 0 0 0
0 0 0 0 0 0 0 3 14 25 33 42 49 45 35 26 20 18 18 21 27 29 26 26 27 24 19 15 10 7 5 4 5 6 7 8 7 6 4 2 2 2 1 1 0 0 0 0 0
0 0 0 0 0 0 1 5 16 26 33 41 47 44 34 27 24 21 18 19 26 31 29 29 30 29 27 25 22 18 14 12 11 10 10 9 7 5 4 3 3 3 3 2 1 0 0 0 0
0 0 0 0 0 0 2 7 16 23 27 34 39 39 33 26 25 24 22 23 27 31 32 31 29 27 26 27 29 27 24 20 19 16 13 10 6 4 3 4 4 4 3 3 2 1 0 0 0
0 0 0 0 0 0 2 8 14 18 20 24 28 31 32 32 33 34 33 31 30 30 31 32 28 23 21 22 23 24 24 23 21 18 15 12 8 4 3 4 4 4 4 4 3 2 1 1 1
0 0 0 0 0 0 1 6 12 17 22 24 26 31 36 38 42 45 42 37 32 28 27 29 27 23 20 18 16 16 19 20 18 16 16 15 12 8 6 4 3 3 4 5 5 4 2 2 2
0 0 0 0 0 1 2 5 10 19 27 29 32 39 42 43 48 50 46 39 32 26 23 23 25 25 22 17 15 14 15 15 15 14 15 15 14 11 8 6 5 5 5 6 7 6 4 2 1
0 0 0 0 1 2 5 9 14 21 28 31 38 45 46 45 48 49 45 39 31 25 21 20 22 24 22 18 15 14 13 12 12 12 11 13 13 10 7 7 8 9 8 8 8 7 5 4 2
0 0 0 1 2 4 8 16 24 27 27 33 42 47 44 42 45 46 46 41 34 27 20 16 18 20 19 15 12 11 10 10 11 11 10 11 11 9 6 6 9 11 11 9 7 6 6 5 3
0 0 0 1 3 7 14 23 29 30 29 36 45 45 39 38 41 42 44 43 38 30 21 14 13 14 13 10 8 8 9 10 11 10 9 10 10 8 5 5 8 9 9 8 7 6 6 5 3
0 0 0 0 2 9 19 25 26 25 30 39 44 41 35 34 37 37 36 38 35 28 20 14 13 12 10 8 7 7 8 9 8 7 7 7 7 6 4 4 6 7 7 6 6 6 5 4 2
0 0 0 0 1 7 14 18 18 21 31 41 43 38 33 32 34 31 29 29 29 26 21 18 16 14 12 10 8 7 8 6 4 4 5 5 4 4 4 4 5 5 5 4 3 3 4 3 1
0 0 0 0 0 3 7 10 15 23 34 42 42 38 34 35 34 30 27 27 26 26 25 22 19 17 15 12 9 8 7 5 3 3 4 4 3 3 5 7 6 5 4 3 1 1 2 2 1
0 0 0 0 0 0 3 9 17 26 36 42 41 39 39 40 37 32 29 26 25 26 26 22 18 18 17 13 10 7 6 5 4 3 3 3 3 5 8 10 8 5 4 3 1 1 1 1 0
0 0 0 0 0 0 2 10 21 28 35 39 40 41 42 41 36 32 29 24 22 23 23 20 17 17 17 14 10 6 4 4 5 3 2 3 3 6 9 10 9 6 4 2 1 0 0 0 0
0 0 0 0 0 0 3 12 22 29 34 36 37 41 43 38 33 30 27 23 21 21 19 17 16 14 14 13 10 6 3 3 3 2 2 3 3 5 8 9 7 5 3 2 0 0 0 0 0
0 0 0 0 0 0 3 12 20 26 30 33 35 39 40 36 31 29 27 23 20 18 16 14 14 12 10 10 9 7 6 5 3 2 3 3 3 4 6 7 6 4 3 2 1 0 0 0 0
0 0 1 1 1 0 3 8 16 20 24 29 33 38 37 33 31 29 27 23 20 17 15 14 14 12 8 7 9 9 8 7 5 3 3 2 2 2 4 4 4 3 3 3 2 1 0 0 0
0 0 1 1 1 0 1 5 10 16 20 24 30 36 36 33 31 29 26 24 21 19 17 15 14 12 9 7 8 9 7 5 3 3 2 2 1 1 1 2 3 3 3 3 3 1 0 0 0
0 0 0 0 0 0 0 1 5 10 17 22 28 34 36 33 31 28 25 23 21 19 18 15 13 11 10 9 8 7 5 3 2 1 1 1 2 1 1 1 3 3 3 3 2 1 0 0 0
0 0 0 0 0 0 0 0 2 5 11 18 26 32 33 32 30 26 22 20 18 18 18 17 14 12 10 9 7 5 4 3 2 0 0 1 1 1 0 1 2 2 2 2 1 1 0 0 0
0 0 0 0 0 0 0 0 1 3 7 13 22 28 29 29 29 25 21 18 18 20 19 17 13 10 9 8 6 3 2 1 1 0 0 0 0 0 0 0 1 1 1 1 0 0 0 0 0
0 0 0 0 0 0 0 0 1 4 7 11 17 23 25 26 27 25 22 20 20 20 18 14 10 8 7 7 4 1 0 0 0 0 0 0 0 0 0 0 0 0 0 0 0 0 0 0 0
0 0 0 0 0 0 0 1 3 6 9 11 15 18 21 23 25 25 23 21 19 17 14 10 7 6 6 4 2 1 0 0 0 0 0 0 0 0 0 0 0 0 0 0 0 0 0 0 0
0 0 0 0 0 0 0 1 3 6 9 12 14 14 17 20 22 23 22 19 16 13 10 6 5 4 4 2 1 0 0 0 0 0 0 0 0 0 0 0 0 0 0 0 0 0 0 0 0
0 0 0 0 0 0 0 1 2 3 6 10 12 12 13 16 19 20 18 15 12 10 7 5 3 2 1 0 0 0 0 0 0 0 0 0 0 0 0 0 0 0 0 0 0 0 0 0 0
0 0 0 0 0 0 0 1 1 1 3 7 10 11 12 14 16 17 16 13 11 9 7 5 2 1 0 0 0 0 0 0 0 0 0 0 0 0 0 0 0 0 0 0 0 0 0 0 0
Wind_Speed
5 4 1 3 6 5 3 6 4 1 4 5 10 12 10 7 5 6 4 14 17 15 12 15 16 17 17 16 16 16 15 15 14 14 14 14 14 14 13 13 12 12 12 11 11 11 11 11 11
2 2 3 5 5 1 6 5 2 3 8 10 11 11 10 9 8 10 7 14 17 15 12 13 17 17 17 17 16 15 15 14 14 13 13 13 13 12 12 12 11 11 10 10 10 10 9 9 9
2 1 4 4 3 4 4 2 4 8 7 7 8 7 7 6 6 6 9 16 15 13 11 14 18 17 17 17 16 15 15 14 13 13 12 12 12 11 11 11 10 10 9 9 9 9 8 7 7
2 4 4 4 3 6 5 4 3 8 8 8 10 8 5 4 4 10 16 16 15 12 10 14 18 17 17 16 16 15 15 14 13 12 12 11 10 10 10 10 9 9 8 8 8 7 6 5 5
4 4 4 2 4 5 4 4 3 8 7 9 12 8 4 5 12 17 16 16 15 12 9 12 16 16 16 16 16 15 14 13 12 11 11 10 9 9 9 9 9 8 8 7 7 6 5 4 3
4 5 3 2 5 5 3 1 7 12 11 9 10 9 3 4 11 13 15 13 13 13 10 10 15 16 15 15 15 14 13 12 11 10 10 9 8 7 7 8 8 7 7 6 6 5 4 3 2
3 3 1 3 4 5 3 0 4 9 9 5 7 8 5 4 8 12 13 13 12 12 10 8 9 11 13 14 13 13 12 11 10 10 9 8 8 7 7 6 7 7 6 6 5 5 4 3 2
4 4 2 3 3 5 2 2 4 7 7 5 5 9 8 8 11 14 13 12 12 10 9 8 7 7 7 8 12 12 11 10 10 9 8 7 7 7 7 6 6 6 6 6 5 5 4 4 4
3 4 2 3 2 4 2 2 4 5 8 4 3 5 10 13 14 15 13 11 10 9 7 7 7 6 6 6 8 9 10 9 8 7 7 6 2 2 3 5 6 7 6 6 5 5 4 4 4
4 3 6 5 3 2 2 3 4 5 7 6 7 8 11 12 14 14 13 11 10 10 7 6 7 7 6 6 5 3 4 4 4 3 3 2 1 1 3 4 7 7 6 6 5 5 5 4 2
3 6 6 6 4 2 1 3 4 8 5 8 14 14 11 11 12 12 11 10 9 9 8 7 7 7 5 4 4 2 2 2 3 3 3 2 1 0 1 1 2 3 4 2 3 3 2 2 2
3 6 5 5 2 2 3 4 5 3 5 10 14 15 12 11 9 9 10 10 9 8 7 6 6 6 5 5 4 3 2 2 2 2 3 2 2 1 1 1 1 1 1 1 1 1 2 3 3
4 6 5 3 2 4 8 7 8 5 9 11 13 13 11 10 8 7 8 9 8 7 6 5 5 6 5 5 3 3 3 3 3 2 2 3 2 2 2 2 2 1 1 1 1 1 2 2 3
4 3 4 3 1 4 9 5 7 5 10 12 12 10 10 9 9 9 8 8 8 6 4 4 5 5 5 4 3 3 3 2 2 2 2 2 2 2 2 2 2 2 2 2 2 1 2 2 2
2 2 5 3 1 2 7 5 4 9 11 12 11 10 9 7 7 10 9 9 8 7 4 4 5 5 5 4 3 3 3 3 2 2 2 2 2 2 2 2 2 2 1 1 1 1 1 1 1
4 3 2 6 1 2 6 3 6 10 14 12 11 10 9 8 7 8 9 9 9 9 6 4 5 5 4 3 3 2 2 3 2 1 1 1 1 1 1 2 2 2 1 1 1 1 0 1 0
5 1 3 6 4 2 4 5 8 9 13 12 11 10 11 10 8 8 7 8 8 8 8 5 5 5 4 3 3 3 3 2 2 1 1 1 1 1 1 1 1 2 2 1 2 1 1 1 1
4 3 3 5 5 1 3 5 8 9 12 12 12 11 11 11 8 8 8 7 7 6 6 6 5 4 4 3 3 3 3 2 1 1 1 1 1 1 1 1 1 2 1 1 1 1 1 1 1
5 5 6 7 6 1 4 6 8 8 10 12 11 12 11 9 7 7 7 6 6 6 5 5 5 3 2 2 2 2 2 1 1 1 1 2 1 1 1 1 1 1 1 1 2 1 1 1 1
6 6 6 6 4 2 4 4 5 6 10 12 13 13 12 10 7 7 8 7 6 6 5 5 4 3 3 2 1 1 2 1 1 1 2 2 1 1 1 1 1 0 0 0 0 0 0 1 1
6 6 6 5 4 3 4 1 3 3 3 6 8 10 11 12 12 10 9 7 6 6 5 5 4 4 3 3 2 2 3 2 2 2 1 1 1 1 1 1 1 0 1 0 0 1 1 1 1
6 6 4 2 1 2 2 2 3 3 2 4 7 8 10 11 10 10 10 9 7 6 5 5 4 4 4 4 4 4 3 2 0 0 1 2 2 1 1 1 0 1 0 1 0 0 1 1 1
6 3 1 1 1 1 3 3 4 1 1 4 7 10 10 11 11 11 10 10 8 7 5 5 5 4 4 4 4 4 3 1 1 1 2 2 2 2 2 2 0 0 0 0 0 0 1 1 1
1 4 5 5 5 2 3 2 3 2 5 7 9 10 10 11 10 9 8 8 7 7 6 5 5 5 4 4 4 4 4 3 3 2 2 2 2 2 3 2 1 1 0 0 0 0 0 0 0
5 5 4 5 4 3 3 2 5 4 3 7 10 10 9 10 11 10 10 9 8 7 6 5 5 5 4 4 4 4 3 3 3 2 1 1 1 2 2 2 2 1 1 1 0 0 0 0 0
1 6 6 4 3 3 3 2 3 2 1 3 7 8 9 8 8 10 10 9 8 7 6 6 5 4 3 4 3 3 3 2 1 1 1 1 1 1 1 1 2 2 2 1 0 0 0 0 0
1 1 5 6 2 0 3 3 3 2 3 4 6 7 8 8 8 9 9 8 7 7 6 6 5 4 3 3 3 3 3 2 2 2 2 1 1 1 2 2 2 2 2 1 1 1 0 0 0
3 3 4 4 4 2 3 3 3 2 2 3 4 6 6 7 7 8 8 7 6 6 5 5 5 4 3 2 2 2 2 2 2 2 2 1 2 2 2 2 2 2 2 1 1 1 1 1 1
2 3 4 3 3 4 2 5 3 5 5 5 5 6 7 8 8 7 6 6 7 6 5 4 4 3 2 2 2 3 2 2 2 2 2 2 2 2 2 2 2 2 2 1 1 1 1 1 2
2 3 4 3 2 3 3 5 3 2 2 5 6 6 7 8 8 7 7 7 6 6 5 4 3 3 3 3 3 3 2 2 2 2 2 2 2 2 2 2 2 2 2 2 2 2 2 2 2
Wind_Direction
299 289 72 50 53 45 272 254 230 349 59 70 87 92 94 83 112 134 127 135 133 137 141 139 136 134 131 126 123 120 118 115 111 107 105 105 104 104 105 107 108 109 111 111 111 110 109 109 109
294 312 56 58 80 25 276 255 200 135 127 111 83 81 75 68 80 107 119 136 134 135 137 140 138 136 134 131 129 127 125 122 118 114 112 111 110 109 109 111 111 111 112 114 114 113 112 112 112
301 36 78 72 113 192 256 298 117 111 103 92 80 60 68 83 98 112 133 134 128 129 133 140 139 138 137 136 135 133 131 129 125 122 120 118 116 116 116 116 116 115 116 117 117 117 116 115 112
40 41 51 69 261 241 237 256 127 107 70 65 92 68 55 42 100 125 132 130 125 126 131 140 140 139 139 139 139 138 137 136 133 130 127 125 124 123 125 124 124 124 124 123 123 123 122 120 114
60 66 46 345 272 265 249 230 174 110 93 89 92 93 54 20 105 125 130 130 128 126 129 137 137 138 140 142 142 142 142 141 139 137 135 133 132 132 134 135 135 135 135 133 132 132 130 128 123
46 66 69 287 279 281 278 182 115 102 105 98 100 109 98 102 118 131 130 127 126 126 124 130 136 139 141 143 143 144 145 144 143 141 140 139 139 140 142 144 144 144 145 146 145 147 150 154 163
113 91 204 253 281 297 284 106 104 112 107 114 126 111 122 126 128 126 123 120 119 122 123 124 132 135 138 140 142 144 145 145 145 145 145 147 150 153 156 155 154 154 157 162 164 169 181 197 221
147 90 327 298 291 288 296 64 85 100 108 120 117 130 152 152 128 118 116 115 118 120 123 125 123 126 132 137 143 145 146 145 147 149 151 156 165 172 174 171 171 173 177 181 185 191 202 221 240
111 73 277 257 276 290 332 70 59 69 104 100 88 123 137 132 123 119 117 115 120 124 128 130 128 129 133 137 146 148 148 151 153 157 161 160 166 182 188 193 190 194 198 200 202 209 218 232 253
109 154 234 220 217 239 320 85 107 96 93 92 89 96 117 121 125 128 133 134 136 140 140 137 137 140 144 149 135 140 152 149 147 148 154 146 151 198 210 214 206 205 210 213 215 223 235 242 263
175 207 243 270 253 164 85 45 70 119 117 150 141 135 129 124 125 132 133 133 138 140 139 142 144 146 146 134 139 143 143 146 145 151 156 149 143 159 226 218 226 219 213 220 233 234 238 239 238
250 262 261 267 286 90 105 89 70 86 152 151 139 137 136 126 124 133 131 130 129 130 134 141 143 143 138 138 149 149 149 152 151 167 171 162 152 148 147 195 229 216 208 219 229 224 236 243 245
251 262 270 268 68 98 89 95 100 86 118 121 121 122 124 124 122 115 120 124 126 128 133 141 145 142 139 138 152 148 147 153 156 157 173 165 162 171 175 191 187 177 207 211 234 235 245 251 264
247 268 289 290 105 107 105 103 95 132 125 122 122 123 124 128 130 117 120 122 123 127 134 138 139 135 135 138 145 145 150 144 135 149 171 158 162 177 176 181 185 179 204 212 209 219 241 252 257
281 339 327 315 74 150 102 61 141 157 139 133 132 130 124 116 123 129 136 134 131 130 138 138 134 125 132 136 142 137 141 139 142 152 145 137 159 180 170 176 189 184 187 205 213 233 234 250 265
359 28 333 294 276 225 116 169 197 161 145 142 140 136 125 109 116 124 134 133 136 135 136 136 128 121 122 131 131 130 127 131 131 126 116 98 148 157 142 162 193 171 159 184 205 213 238 280 291
6 358 280 289 278 229 140 176 193 170 151 148 145 141 132 124 123 122 128 133 140 140 137 129 117 118 122 126 123 116 115 115 117 112 93 95 123 161 148 159 186 158 163 184 206 194 203 226 248
262 272 269 263 279 221 166 179 180 171 158 155 152 148 143 140 140 134 128 133 128 125 119 117 111 111 121 118 106 96 94 97 106 107 103 90 79 82 109 139 170 151 155 188 208 203 213 209 207
234 263 275 273 265 190 176 173 180 174 161 159 159 156 153 148 146 135 127 125 116 108 108 111 109 112 115 102 104 110 114 106 88 97 95 78 63 57 73 78 50 130 161 189 210 200 213 235 158
250 256 269 286 280 164 143 175 188 179 176 173 166 162 155 149 149 149 140 143 141 136 125 114 111 106 101 104 113 120 116 108 97 46 55 54 49 47 84 86 63 34 98 84 254 196 250 256 172
260 236 239 254 317 33 112 105 214 207 159 165 168 163 157 158 160 158 154 149 141 132 125 118 109 97 91 93 90 76 55 46 41 31 12 5 37 48 43 66 98 98 119 124 225 222 210 235 273
261 250 223 222 59 304 123 198 263 195 163 168 174 170 166 162 161 160 154 143 136 129 117 106 95 85 82 87 92 98 101 90 46 345 350 359 15 31 30 357 77 67 66 88 284 285 245 196 259
237 245 207 204 139 36 7 122 284 41 186 202 184 178 173 166 164 157 152 145 137 127 118 107 97 86 82 84 92 95 89 93 61 49 36 16 354 353 2 5 19 42 359 356 284 280 252 213 217
219 38 24 39 68 43 274 141 265 244 224 201 186 174 169 162 150 140 136 129 123 120 115 108 99 85 79 83 84 93 95 84 76 57 36 12 351 356 11 3 26 15 12 28 334 2 15 301 246
48 72 25 1 14 259 272 145 239 254 243 198 179 172 163 156 148 142 139 136 134 129 123 116 109 94 84 88 82 82 87 92 91 81 57 33 4 355 349 9 5 358 346 333 53 50 308 268 242
278 134 156 198 224 272 329 228 252 275 19 122 148 150 148 151 148 145 147 145 140 133 126 120 110 102 90 90 85 78 80 82 74 67 66 34 352 318 332 7 2 351 348 359 46 41 296 305 252
79 127 170 143 161 283 281 275 297 12 67 91 133 144 153 156 155 150 145 141 137 132 126 122 116 108 99 94 90 77 67 67 67 52 48 21 350 352 7 13 12 1 358 4 31 39 309 35 256
140 147 82 108 152 231 271 265 249 251 213 143 136 150 157 148 145 142 140 138 136 134 128 121 123 126 117 102 103 93 67 65 66 57 41 19 7 16 16 17 16 9 11 29 43 21 359 42 344
17 54 90 103 146 160 236 268 240 209 201 169 154 137 144 149 146 143 139 135 133 129 128 128 132 129 123 111 95 84 69 64 58 50 32 27 22 20 22 11 13 19 22 26 50 19 19 27 359
142 143 129 142 228 173 177 261 308 198 165 154 144 140 144 150 146 142 139 136 134 134 134 135 135 125 125 113 101 95 85 74 61 43 24 24 21 14 17 22 26 26 29 29 42 26 25 38 20